NOAA 16 DEB, 42390

Orbit data source: Space-Track

NOAA 16 DEB, 42390 is space debris in SSO originally from a launch on Thu, 21 Sep 2000 UTC launched from the Air Force Western Test Range (AFWTR). Debris objects in space refer to the collection of defunct objects orbiting the Earth. Examples of debris include non-operational satellites, rocket bodies, and fragments generated from explosions, collisions, or faulty payload assembly.

Loading next visibility...
Identifier
42390, 2000-055SJ
Orbit
SSO
Country
Flag of USUS
Related business
Manufacturer
Unknown
Mission
Spacecraft
Bus & Motor
Unknown
Mass
Unknown
Launch date (UTC)
2000-09-21 (25 years ago)
Launch vehicle
Unknown
Launch site
Air Force Western Test Range (AFWTR)
Object type
Payload
Rocket body
Debris
Shape & HBR
Unknown shape, 0.1 m
Radar Cross Section
Small (<0.1 m²)

Expand to show TLE details & history
Last TLE update: 1 day ago

TLE from 1 day ago
0 NOAA 16 DEB
1 42390U 00055SJ  25306.17570687  .00003230  00000-0  13186-2 0  9994
2 42390  98.6383  18.0513 0016407 125.8762 234.3945 14.27943984501966
Epoch: 2025-11-02T04:13Z
TLE epoch observation values (Epoch: 2025-11-02T04:13:01.073Z)
Latitude
-0.00005°
Longitude
-86.89836°
Altitude
808.409 km
Speed
7.446 km/s
True Right ascension
01h 12m 12s
True Declination
0° 00' 00"
Sunlit
Object was in full shadow at epoch
Visualization orbit readout
Latitude
Unknown
Longitude
Unknown
Altitude
Unknown
Speed
Unknown
Apparent Right ascension
Unknown
Apparent Declination
Unknown
Sunlit
N/A
Visualization observer readout
Local Sidereal Time
07:46:32
Azimuth
Unknown
Elevation
Unknown
Doppler factor
Unknown
Orbital elements
Apogee altitude
807.526 km
Perigee altitude
783.986 km
Semi-major axis
7,173.893 km
Eccentricity
0.00164
Inclination
98.6383°
RAAN
18.0513°
Arg. of periapsis
125.8762°
True anomaly
234.24182°
Mean anomaly
234.3945°
Eccentric anomaly
234.31814°
Mean motion
3.57199 °/min
Orbital period
100.78 mins
BSTAR
0.0013186
Loading maneuver chart data...
Computing Atmospheric mass density...
Loading historical data...
Loading historical data...
Loading historical data...
Loading historical data...
Loading historical data...
Loading historical data...
Loading historical data...

Documentation

Showing up to 5 results
|